When you browse on this site, cookies collect data to enhance your experience and personalize the content and advertising you see.
Visit our Privacy Policy to learn more. By continuing to use the site, you agree to this use of cookies and data.
  • In Romania
  • List of Countries
  • For 7 days
  • Water Temperature
  • Satellite Maps
  • Weather Map
  • Weather Widgets
  • user-avatar
    Login

    Hourly Weather San Miguel de Tucumán

    Today, 17 January, Thursday

    Time Temperature Precipitation Wind Pressure Humidity
    00:00 +25°C° 0 mm 1 mps 716 mmHg 91%
    01:00 +25°C° 0 mm 1 mps 716 mmHg 90%
    02:00 +25°C° 0 mm 1 mps 716 mmHg 90%
    03:00 +25°C° 0 mm 1 mps 716 mmHg 90%
    04:00 +25°C° 0 mm 1 mps 717 mmHg 90%
    05:00 +25°C° 0 mm 1 mps 717 mmHg 90%
    06:00 +26°C° 0.2 mm 1 mps 717 mmHg 89%
    07:00 +26°C° 0.2 mm 1 mps 718 mmHg 89%
    08:00 +27°C° 0.2 mm 2 mps 719 mmHg 88%
    09:00 +28°C° 1.6 mm 3 mps 719 mmHg 85%
    10:00 +29°C° 1.6 mm 4 mps 720 mmHg 82%
    11:00 +29°C° 1.6 mm 4 mps 720 mmHg 79%
    12:00 +29°C° 1.1 mm 5 mps 720 mmHg 80%
    13:00 +28°C° 1.1 mm 5 mps 720 mmHg 81%
    14:00 +27°C° 1.1 mm 5 mps 720 mmHg 82%
    15:00 +26°C° 0.3 mm 4 mps 720 mmHg 85%
    16:00 +25°C° 0.3 mm 4 mps 720 mmHg 88%
    17:00 +24°C° 0.3 mm 3 mps 720 mmHg 91%
    18:00 +22°C° 0.4 mm 3 mps 721 mmHg 92%
    19:00 +21°C° 0.4 mm 3 mps 722 mmHg 93%
    20:00 +21°C° 0.4 mm 3 mps 722 mmHg 94%
    21:00 +20°C° 0.2 mm 3 mps 723 mmHg 93%
    22:00 +20°C° 0.2 mm 3 mps 723 mmHg 93%
    23:00 +20°C° 0.2 mm 2 mps 724 mmHg 93%

    Tomorrow, 18 January, Friday

    Time Temperature Precipitation Wind Pressure Humidity
    00:00 +19°C° 0.2 mm 2 mps 724 mmHg 93%
    01:00 +19°C° 0.2 mm 2 mps 724 mmHg 93%
    02:00 +20°C° 0.2 mm 1 mps 723 mmHg 93%
    03:00 +20°C° 0 mm 1 mps 723 mmHg 93%
    04:00 +19°C° 0 mm 1 mps 723 mmHg 92%
    05:00 +19°C° 0 mm 1 mps 723 mmHg 92%
    06:00 +19°C° 0 mm 1 mps 724 mmHg 90%
    07:00 +19°C° 0 mm 1 mps 724 mmHg 89%
    08:00 +20°C° 0 mm 1 mps 725 mmHg 87%
    09:00 +21°C° 0 mm 1 mps 725 mmHg 80%
    10:00 +22°C° 0 mm 1 mps 725 mmHg 73%
    11:00 +23°C° 0 mm 2 mps 725 mmHg 65%
    12:00 +24°C° 0 mm 2 mps 725 mmHg 62%
    13:00 +26°C° 0 mm 2 mps 724 mmHg 59%
    14:00 +27°C° 0 mm 2 mps 723 mmHg 56%
    15:00 +27°C° 0 mm 2 mps 723 mmHg 58%
    16:00 +27°C° 0 mm 1 mps 722 mmHg 59%
    17:00 +26°C° 0 mm 1 mps 722 mmHg 60%
    18:00 +25°C° 0 mm 1 mps 722 mmHg 66%
    19:00 +23°C° 0 mm 1 mps 722 mmHg 72%
    20:00 +20°C° 0 mm 0 mps 722 mmHg 78%
    21:00 +20°C° 0 mm 0 mps 723 mmHg 79%
    22:00 +19°C° 0 mm 0 mps 723 mmHg 81%
    23:00 +19°C° 0 mm 0 mps 724 mmHg 82%

    Day after tomorrow, 19 January, Saturday

    Time Temperature Precipitation Wind Pressure Humidity
    00:00 +19°C° 0 mm 0 mps 724 mmHg 85%
    01:00 +20°C° 0 mm 1 mps 723 mmHg 87%
    02:00 +20°C° 0 mm 1 mps 723 mmHg 90%
    03:00 +20°C° 0 mm 1 mps 723 mmHg 90%
    04:00 +20°C° 0 mm 1 mps 723 mmHg 91%
    05:00 +18°C° 0 mm 0 mps 723 mmHg 92%
    06:00 +20°C° 0 mm 1 mps 723 mmHg 89%
    07:00 +21°C° 0 mm 1 mps 724 mmHg 86%
    08:00 +21°C° 0 mm 1 mps 724 mmHg 83%
    09:00 +23°C° 0 mm 1 mps 724 mmHg 76%
    10:00 +25°C° 0 mm 1 mps 724 mmHg 70%
    11:00 +26°C° 0 mm 2 mps 724 mmHg 63%
    12:00 +27°C° 0 mm 2 mps 723 mmHg 63%
    13:00 +27°C° 0 mm 2 mps 722 mmHg 63%
    14:00 +27°C° 0 mm 2 mps 722 mmHg 63%
    15:00 +27°C° 0 mm 2 mps 721 mmHg 64%
    16:00 +27°C° 0 mm 2 mps 720 mmHg 65%
    17:00 +27°C° 0 mm 2 mps 720 mmHg 66%
    18:00 +26°C° 0 mm 1 mps 720 mmHg 71%
    19:00 +25°C° 0 mm 1 mps 720 mmHg 76%
    20:00 +24°C° 0 mm 1 mps 721 mmHg 80%
    21:00 +23°C° 0 mm 1 mps 721 mmHg 80%
    22:00 +23°C° 0 mm 1 mps 722 mmHg 80%
    23:00 +21°C° 0 mm 0 mps 722 mmHg 80%

    20 January, Sunday

    Time Temperature Precipitation Wind Pressure Humidity
    00:00 +23°C° 0 mm 1 mps 722 mmHg 82%
    01:00 +22°C° 0 mm 1 mps 721 mmHg 85%
    02:00 +21°C° 0 mm 1 mps 720 mmHg 87%
    03:00 +21°C° 0 mm 1 mps 720 mmHg 89%
    04:00 +21°C° 0 mm 1 mps 720 mmHg 90%
    05:00 +20°C° 0 mm 1 mps 720 mmHg 91%
    06:00 +22°C° 0 mm 1 mps 720 mmHg 86%
    07:00 +23°C° 0 mm 1 mps 720 mmHg 80%
    08:00 +25°C° 0 mm 1 mps 721 mmHg 75%
    09:00 +26°C° 0 mm 2 mps 721 mmHg 69%
    10:00 +28°C° 0 mm 2 mps 720 mmHg 64%
    11:00 +30°C° 0 mm 3 mps 720 mmHg 58%
    12:00 +31°C° 0 mm 3 mps 719 mmHg 58%
    13:00 +31°C° 0 mm 3 mps 718 mmHg 57%
    14:00 +33°C° 0 mm 3 mps 717 mmHg 56%
    15:00 +31°C° 0 mm 3 mps 717 mmHg 59%
    16:00 +31°C° 0 mm 2 mps 716 mmHg 62%
    17:00 +30°C° 0 mm 2 mps 715 mmHg 65%
    18:00 +29°C° 0 mm 1 mps 716 mmHg 69%
    19:00 +28°C° 0 mm 1 mps 716 mmHg 74%
    20:00 +24°C° 0 mm 0 mps 717 mmHg 79%
    21:00 +24°C° 0 mm 0 mps 717 mmHg 79%
    22:00 +26°C° 0 mm 1 mps 717 mmHg 80%
    23:00 +26°C° 0 mm 1 mps 718 mmHg 80%

    21 January, Monday

    Time Temperature Precipitation Wind Pressure Humidity
    00:00 +25°C° 0 mm 1 mps 717 mmHg 82%
    01:00 +24°C° 0 mm 1 mps 717 mmHg 85%
    02:00 +24°C° 0 mm 1 mps 716 mmHg 87%
    03:00 +22°C° 0 mm 0 mps 717 mmHg 89%
    04:00 +21°C° 0 mm 0 mps 717 mmHg 91%
    05:00 +21°C° 0 mm 0 mps 717 mmHg 92%
    06:00 +22°C° 0 mm 0 mps 717 mmHg 88%
    07:00 +23°C° 0 mm 0 mps 718 mmHg 84%
    08:00 +24°C° 0 mm 0 mps 719 mmHg 80%
    09:00 +28°C° 0 mm 1 mps 719 mmHg 73%
    10:00 +30°C° 0 mm 1 mps 719 mmHg 66%
    11:00 +32°C° 0 mm 2 mps 719 mmHg 59%
    12:00 +32°C° 0 mm 2 mps 718 mmHg 58%
    13:00 +34°C° 0 mm 2 mps 718 mmHg 57%
    14:00 +34°C° 0 mm 2 mps 717 mmHg 55%
    15:00 +34°C° 0 mm 2 mps 717 mmHg 56%
    16:00 +33°C° 0 mm 1 mps 717 mmHg 57%
    17:00 +33°C° 0 mm 1 mps 716 mmHg 58%
    18:00 +31°C° 0 mm 1 mps 716 mmHg 63%
    19:00 +30°C° 0 mm 1 mps 717 mmHg 69%
    20:00 +28°C° 0 mm 1 mps 717 mmHg 74%
    21:00 +28°C° 0 mm 1 mps 718 mmHg 73%
    22:00 +28°C° 0 mm 1 mps 718 mmHg 72%
    23:00 +28°C° 0 mm 1 mps 719 mmHg 72%

    22 January, Tuesday

    Time Temperature Precipitation Wind Pressure Humidity
    00:00 +27°C° 0 mm 1 mps 718 mmHg 73%
    01:00 +27°C° 0 mm 1 mps 717 mmHg 74%
    02:00 +27°C° 0 mm 1 mps 717 mmHg 74%
    03:00 +26°C° 0 mm 1 mps 717 mmHg 76%
    04:00 +26°C° 0 mm 1 mps 716 mmHg 78%
    05:00 +25°C° 0 mm 1 mps 716 mmHg 79%
    06:00 +27°C° 0 mm 1 mps 716 mmHg 76%
    07:00 +28°C° 0 mm 1 mps 716 mmHg 73%
    08:00 +29°C° 0 mm 1 mps 717 mmHg 69%
    09:00 +31°C° 0 mm 1 mps 716 mmHg 62%
    10:00 +34°C° 0 mm 2 mps 716 mmHg 55%
    11:00 +36°C° 0 mm 2 mps 716 mmHg 48%
    12:00 +38°C° 0 mm 2 mps 716 mmHg 45%
    13:00 +39°C° 0 mm 2 mps 715 mmHg 43%
    14:00 +40°C° 0 mm 3 mps 714 mmHg 40%
    15:00 +39°C° 0 mm 2 mps 714 mmHg 42%
    16:00 +39°C° 0 mm 2 mps 713 mmHg 45%
    17:00 +39°C° 0 mm 1 mps 713 mmHg 47%
    18:00 +36°C° 0 mm 1 mps 713 mmHg 53%
    19:00 +34°C° 0 mm 1 mps 713 mmHg 59%
    20:00 +32°C° 0 mm 1 mps 714 mmHg 66%
    21:00 +31°C° 0 mm 1 mps 714 mmHg 65%
    22:00 +31°C° 0 mm 2 mps 715 mmHg 64%
    23:00 +30°C° 0 mm 2 mps 715 mmHg 62%
    Show more